This is the latest recevied weather packets stored in our database for station/object SQ7ACP-3. If no packets are shown the sender has not sent any weather packets the latest 10 day(s).
| Time | Temp. | Humidity | Pressure | Rain* | Wind** | Luminosity | Snow |
|---|---|---|---|---|---|---|---|
| 1777588561 | 8.89° C | 56% | 1026.7 hPa | 0 mm | - | - | - |
| 1777587948 | 8.89° C | 53% | 1026.6 hPa | 0 mm | - | - | - |
| 1777587336 | 8.89° C | 55% | 1026.5 hPa | 0 mm | - | - | - |
| 1777586723 | 8.89° C | 54% | 1026.6 hPa | 0 mm | - | - | - |
| 1777586123 | 8.89° C | 53% | 1026.6 hPa | 0 mm | - | - | - |
| 1777585511 | 8.89° C | 52% | 1026.5 hPa | 0 mm | - | - | - |
| 1777584904 | 9.44° C | 49% | 1026.5 hPa | 0 mm | - | - | - |
| 1777584286 | 8.89° C | 49% | 1026.5 hPa | 0 mm | - | - | - |
| 1777583674 | 8.89° C | 50% | 1026.5 hPa | 0 mm | - | - | - |
| 1777583073 | 9.44° C | 51% | 1026.7 hPa | 0 mm | - | - | - |
| 1777582461 | 9.44° C | 50% | 1026.7 hPa | 0 mm | - | - | - |
| 1777581848 | 10° C | 46% | 1026.7 hPa | 0 mm | - | - | - |
| 1777581248 | 9.44° C | 47% | 1026.8 hPa | 0 mm | - | - | - |
| 1777580639 | 9.44° C | 47% | 1026.8 hPa | 0 mm | - | - | - |
| 1777580036 | 10° C | 48% | 1026.9 hPa | 0 mm | - | - | - |
| 1777579426 | 10° C | 45% | 1027 hPa | 0 mm | - | - | - |
| 1777578824 | 10° C | 45% | 1027 hPa | 0 mm | - | - | - |
| 1777578223 | 10° C | 47% | 1027 hPa | 0 mm | - | - | - |
| 1777577611 | 10° C | 45% | 1027 hPa | 0 mm | - | - | - |
| 1777577011 | 10° C | 46% | 1026.9 hPa | 0 mm | - | - | - |
| 1777576398 | 10° C | 45% | 1026.9 hPa | 0 mm | - | - | - |
| 1777575789 | 10.56° C | 43% | 1027 hPa | 0 mm | - | - | - |
| 1777575173 | 10.56° C | 42% | 1027 hPa | 0 mm | - | - | - |
| 1777574561 | 10.56° C | 42% | 1027 hPa | 0 mm | - | - | - |
| 1777573960 | 10.56° C | 42% | 1027 hPa | 0 mm | - | - | - |
* Rain latest hour (hover to see other rain measurements)
** Current wind speed in m/s (hover to see current wind gust speed)